Terminal Aerodrome Forecast
Issued by NWS Wichita, KS

Home | Current Version | Previous Version | Graphics & Text | Print | Product List | Glossary On
Versions: 1 2 3 4 5 6 7 8 9 10 11 12 13 14 15 16
332
FTUS43 KICT 202328
TAFICT
TAF
KICT 202328Z 2100/2124 17013KT P6SM SCT250
     FM211600 19013KT P6SM SCT070 BKN150=

USA.gov is the U.S. government's official web portal to all federal, state and local government web resources and services.